FW0450 Weather Reports


time (UTC)temp
C
wind
direction
speed
KPH
gust
KPH
rain 1hr
cm
rain 24hr
cm
rain mn
cm
humidity
%
barometer
mb
20180625081007 18 326 3.2 4.8 0.00 0.00 0.00 86 1030.4
20180625080507 18 315 3.2 6.4 0.00 0.00 0.00 86 1030.4
20180625080007 18 311 4.8 6.4 0.00 0.00 0.00 86 1030.4
20180625075507 18 308 4.8 6.4 0.00 0.00 0.00 86 1030.4
20180625075008 18 303 4.8 6.4 0.00 0.00 0.00 87 1030.4
20180625074507 18 307 4.8 6.4 0.00 0.00 0.00 87 1030.4
20180625074007 18 317 4.8 6.4 0.00 0.00 0.00 87 1030.4
20180625073506 18 320 4.8 6.4 0.00 0.00 0.00 87 1030.4
20180625073007 17 319 4.8 6.4 0.00 0.00 0.00 87 1030.4
20180625072507 17 336 4.8 6.4 0.00 0.00 0.00 88 1030.4
20180625072007 17 343 3.2 6.4 0.00 0.00 0.00 88 1030.4
20180625071507 17 310 3.2 6.4 0.00 0.00 0.00 88 1030.4
20180625071007 17 304 3.2 6.4 0.00 0.00 0.00 88 1029.4
20180625070507 17 306 4.8 6.4 0.00 0.00 0.00 88 1029.4
20180625070007 17 315 4.8 6.4 0.00 0.00 0.00 88 1029.4
20180625065507 17 313 4.8 6.4 0.00 0.00 0.00 89 1029.4
20180625065007 17 307 4.8 6.4 0.00 0.00 0.00 89 1029.4
20180625064507 17 314 4.8 8.0 0.00 0.00 0.00 89 1029.4
20180625064008 17 312 4.8 8.0 0.00 0.00 0.00 89 1029.4
20180625063507 17 304 6.4 9.7 0.00 0.00 0.00 89 1029.4
20180625063008 17 306 6.4 9.7 0.00 0.00 0.00 89 1029.4
20180625062507 17 314 6.4 9.7 0.00 0.00 0.00 89 1029.4
20180625062007 17 311 6.4 8.0 0.00 0.00 0.00 89 1029.4
20180625061507 17 309 6.4 11.3 0.00 0.00 0.00 89 1029.4
20180625061007 17 308 8.0 11.3 0.00 0.00 0.00 90 1029.4
20180625060507 17 306 6.4 9.7 0.00 0.00 0.00 90 1029.4
20180625060007 17 307 4.8 8.0 0.00 0.00 0.00 90 1029.4
20180625055507 17 306 4.8 6.4 0.00 0.00 0.00 90 1029.4
20180625055007 17 311 4.8 6.4 0.00 0.00 0.00 90 1029.4
20180625054508 17 311 4.8 6.4 0.00 0.00 0.00 90 1029.4
20180625054007 17 299 4.8 4.8 0.00 0.00 0.00 90 1029.4
20180625053507 17 282 4.8 6.4 0.00 0.00 0.00 90 1029.4
20180625053008 17 273 6.4 8.0 0.00 0.00 0.00 90 1029.4
20180625052507 17 287 6.4 8.0 0.00 0.00 0.00 91 1029.4
20180625052008 17 308 6.4 8.0 0.00 0.00 0.00 91 1029.4
20180625051507 17 306 4.8 6.4 0.00 0.00 0.00 91 1029.4
20180625051008 17 308 4.8 6.4 0.00 0.00 0.00 91 1029.4
20180625050508 17 311 4.8 6.4 0.00 0.00 0.00 91 1029.4
20180625050007 17 314 3.2 6.4 0.00 0.00 0.00 91 1029.4
20180625045508 17 312 3.2 6.4 0.00 0.00 0.00 91 1028.4
20180625045007 17 297 4.8 6.4 0.00 0.00 0.00 91 1028.4
20180625044507 17 294 6.4 9.7 0.00 0.00 0.00 91 1028.4
20180625044007 17 294 6.4 9.7 0.00 0.00 0.00 91 1028.4
20180625043507 17 293 4.8 9.7 0.00 0.00 0.00 91 1028.4
20180625043007 17 302 4.8 8.0 0.00 0.00 0.00 90 1028.4
20180625042507 17 312 4.8 8.0 0.00 0.00 0.00 90 1028.4
20180625042008 17 306 4.8 6.4 0.00 0.00 0.00 90 1028.4
20180625041507 17 301 4.8 6.4 0.00 0.00 0.00 90 1028.4
20180625041007 17 294 6.4 9.7 0.00 0.00 0.00 90 1028.4
20180625040507 17 286 6.4 9.7 0.00 0.00 0.00 90 1028.4
20180625040008 17 288 4.8 6.4 0.00 0.00 0.00 91 1028.4
20180625035507 17 290 4.8 6.4 0.00 0.00 0.00 91 1028.4
20180625035008 17 302 4.8 6.4 0.00 0.00 0.00 91 1028.4
20180625034508 17 316 6.4 8.0 0.00 0.00 0.00 90 1028.4
20180625034008 17 318 6.4 8.0 0.00 0.00 0.00 90 1028.4
20180625033507 17 320 6.4 8.0 0.00 0.00 0.00 90 1028.4
20180625033007 17 325 6.4 8.0 0.00 0.00 0.00 90 1028.4
20180625032508 17 322 4.8 8.0 0.00 0.00 0.00 90 1028.4
20180625032007 17 314 6.4 8.0 0.00 0.00 0.00 90 1028.4
20180625031508 17 327 4.8 8.0 0.00 0.00 0.00 91 1028.4
20180625031008 17 347 4.8 8.0 0.00 0.00 0.00 91 1028.4
20180625030507 17 357 4.8 8.0 0.00 0.00 0.00 91 1028.4
20180625030007 17 347 4.8 8.0 0.00 0.00 0.00 91 1028.4
20180625025507 17 344 6.4 9.7 0.00 0.00 0.00 90 1028.4
20180625025008 17 335 6.4 9.7 0.00 0.00 0.00 91 1028.4
20180625024508 17 315 6.4 8.0 0.00 0.00 0.00 91 1028.4
20180625024008 17 327 6.4 8.0 0.00 0.00 0.00 90 1028.4
20180625023507 17 330 6.4 11.3 0.00 0.00 0.00 90 1028.4
20180625023007 17 309 8.0 11.3 0.00 0.00 0.00 90 1028.4
20180625022507 17 324 6.4 9.7 0.00 0.00 0.00 90 1028.4
20180625022008 17 344 6.4 9.7 0.00 0.00 0.00 90 1028.4
20180625021507 17 349 6.4 9.7 0.00 0.00 0.00 90 1028.4
20180625021008 17 356 6.4 8.0 0.00 0.00 0.00 90 1028.4
20180625020507 17 355 6.4 8.0 0.00 0.00 0.00 90 1028.4
20180625020008 17 355 6.4 8.0 0.00 0.00 0.00 90 1028.4
20180625015507 17 346 6.4 8.0 0.00 0.00 0.00 90 1028.4
20180625015008 17 332 6.4 9.7 0.00 0.00 0.00 90 1028.4
20180625014507 17 330 8.0 9.7 0.00 0.00 0.00 90 1028.4
20180625014008 17 332 8.0 9.7 0.00 0.00 0.00 90 1028.4
20180625012508 17 334 8.0 11.3 0.00 0.00 0.00 90 1028.4
20180625012010 17 337 9.7 12.9 0.00 0.00 0.00 90 1028.4
20180625011511 17 356 9.7 12.9 0.00 0.00 0.00 90 1028.4
20180625011012 17 6 9.7 12.9 0.00 0.00 0.00 90 1028.4
20180625010513 17 349 9.7 12.9 0.00 0.00 0.00 90 1028.4
20180625010012 17 335 9.7 12.9 0.00 0.00 0.00 90 1028.4
20180625005510 17 324 8.0 12.9 0.00 0.00 0.00 90 1028.4
20180625005012 17 318 8.0 12.9 0.00 0.00 0.00 90 1028.4
20180625004509 17 323 6.4 9.7 0.00 0.00 0.00 90 1028.4
20180625004011 17 344 8.0 12.9 0.00 0.00 0.00 90 1028.4
20180625003509 17 349 9.7 12.9 0.00 0.00 0.00 89 1028.4
20180625003008 17 334 8.0 12.9 0.00 0.00 0.00 90 1028.4
20180625002510 17 321 8.0 11.3 0.00 0.00 0.00 90 1028.4
20180625002011 17 321 9.7 11.3 0.00 0.00 0.00 90 1028.4
20180625001509 17 326 9.7 14.5 0.00 0.00 0.00 90 1028.4
20180625001006 17 325 9.7 14.5 0.00 0.00 0.00 90 1028.4
20180625000511 17 326 8.0 12.9 0.00 0.00 0.00 89 1028.4
20180625000007 17 329 8.0 12.9 0.00 0.00 0.00 89 1028.4
20180624235508 17 326 8.0 9.7 0.00 0.00 0.00 89 1028.4
20180624235007 17 324 8.0 9.7 0.00 0.00 0.00 89 1028.4
20180624234506 17 328 8.0 12.9 0.00 0.00 0.00 89 1028.4
20180624234008 17 336 9.7 14.5 0.00 0.00 0.00 89 1028.4
20180624233009 17 324 9.7 12.9 0.00 0.00 0.00 89 1028.4
20180624232506 17 333 8.0 12.9 0.00 0.00 0.00 89 1028.4
20180624232008 17 337 8.0 11.3 0.00 0.00 0.00 88 1028.4
20180624231505 17 331 8.0 11.3 0.00 0.00 0.00 88 1028.4
20180624231006 17 348 6.4 9.7 0.00 0.00 0.00 88 1028.4
20180624230506 17 351 6.4 9.7 0.00 0.00 0.00 88 1028.4
20180624230009 17 346 6.4 12.9 0.00 0.00 0.00 88 1028.4
20180624225505 17 356 9.7 14.5 0.00 0.00 0.00 88 1028.4
20180624225005 17 7 9.7 14.5 0.00 0.00 0.00 88 1028.4
20180624224506 17 5 8.0 9.7 0.00 0.00 0.00 88 1028.4
20180624224005 17 349 8.0 9.7 0.00 0.00 0.00 88 1028.4
20180624223505 17 339 8.0 12.9 0.00 0.00 0.00 88 1028.4
20180624223006 17 355 8.0 12.9 0.00 0.00 0.00 88 1028.4
20180624222505 17 4 8.0 12.9 0.00 0.00 0.00 87 1028.4
20180624222006 17 350 8.0 12.9 0.00 0.00 0.00 87 1028.4
20180624221505 17 352 8.0 12.9 0.00 0.00 0.00 87 1028.4
20180624221006 17 351 8.0 9.7 0.00 0.00 0.00 88 1028.4
20180624220505 17 335 8.0 12.9 0.00 0.00 0.00 88 1028.4
20180624220005 17 333 9.7 12.9 0.00 0.00 0.00 88 1028.4
20180624215505 17 341 9.7 12.9 0.00 0.00 0.00 88 1028.4
20180624215006 17 339 9.7 12.9 0.00 0.00 0.00 87 1028.4
20180624214506 17 330 9.7 12.9 0.00 0.00 0.00 87 1028.4
20180624214005 17 332 9.7 12.9 0.00 0.00 0.00 87 1028.4
20180624213505 17 341 9.7 12.9 0.00 0.00 0.00 87 1028.4
20180624213006 17 340 9.7 11.3 0.00 0.00 0.00 87 1028.4
20180624212506 17 341 9.7 16.1 0.00 0.00 0.00 86 1028.4
20180624212005 17 342 9.7 16.1 0.00 0.00 0.00 86 1028.4
20180624211505 17 334 9.7 14.5 0.00 0.00 0.00 86 1028.4
20180624211006 17 327 11.3 16.1 0.00 0.00 0.00 86 1028.4
20180624210506 17 331 11.3 16.1 0.00 0.00 0.00 86 1028.4
20180624210006 17 335 9.7 14.5 0.00 0.00 0.00 86 1028.4
20180624205505 17 339 11.3 14.5 0.00 0.00 0.00 86 1028.4
20180624205005 17 341 11.3 14.5 0.00 0.00 0.00 86 1028.4
20180624204505 17 337 11.3 17.7 0.00 0.00 0.00 86 1028.4
20180624204006 17 337 9.7 17.7 0.00 0.00 0.00 86 1028.4
20180624203505 17 334 9.7 12.9 0.00 0.00 0.00 86 1028.4
20180624203005 17 325 11.3 14.5 0.00 0.00 0.00 86 1028.4
20180624202506 17 323 9.7 14.5 0.00 0.00 0.00 86 1028.4
20180624202005 17 339 8.0 12.9 0.00 0.00 0.00 86 1028.4
20180624201506 17 351 9.7 12.9 0.00 0.00 0.00 86 1028.4
20180624201006 17 341 11.3 16.1 0.00 0.00 0.00 86 1028.4
20180624200505 17 333 8.0 16.1 0.00 0.00 0.00 85 1028.4
20180624200006 17 343 8.0 9.7 0.00 0.00 0.00 85 1028.4
20180624195506 17 339 9.7 16.1 0.00 0.00 0.00 85 1029.4
20180624195005 17 339 11.3 16.1 0.00 0.00 0.00 85 1029.4
20180624194506 17 355 9.7 14.5 0.00 0.00 0.00 85 1029.4
20180624194006 17 354 9.7 16.1 0.00 0.00 0.00 85 1029.4
20180624193506 17 348 9.7 16.1 0.00 0.00 0.00 85 1029.4
20180624193005 18 335 8.0 14.5 0.00 0.00 0.00 85 1029.4
20180624192506 18 320 9.7 14.5 0.00 0.00 0.00 85 1029.4
20180624192006 18 323 11.3 14.5 0.00 0.00 0.00 85 1029.4
20180624191505 18 327 9.7 17.7 0.00 0.00 0.00 84 1029.4
20180624191006 18 319 9.7 17.7 0.00 0.00 0.00 84 1029.4
20180624190505 18 326 11.3 17.7 0.00 0.00 0.00 84 1029.4
20180624190006 18 329 9.7 16.1 0.00 0.00 0.00 84 1029.4
20180624185506 18 333 9.7 16.1 0.00 0.00 0.00 84 1030.4
20180624185006 18 325 11.3 16.1 0.00 0.00 0.00 84 1030.4
20180624184506 18 326 11.3 16.1 0.00 0.00 0.00 84 1030.4
20180624184006 18 327 9.7 12.9 0.00 0.00 0.00 83 1031.4
20180624183506 18 325 11.3 16.1 0.00 0.00 0.00 83 1031.4
20180624183007 18 320 11.3 16.1 0.00 0.00 0.00 83 1031.4
20180624182505 18 311 11.3 16.1 0.00 0.00 0.00 83 1031.4
20180624182006 18 314 12.9 16.1 0.00 0.00 0.00 83 1031.4
20180624181506 18 317 12.9 20.9 0.00 0.00 0.00 83 1031.4
20180624181006 18 314 12.9 20.9 0.00 0.00 0.00 83 1031.4
20180624180506 18 318 12.9 20.9 0.00 0.00 0.00 83 1031.4
20180624180006 18 329 9.7 14.5 0.00 0.00 0.00 82 1031.4
20180624175507 18 326 9.7 17.7 0.00 0.00 0.00 83 1031.4
20180624175005 18 320 11.3 17.7 0.00 0.00 0.00 83 1031.4
20180624174506 18 323 11.3 16.1 0.00 0.00 0.00 82 1031.4
20180624174006 18 323 12.9 17.7 0.00 0.00 0.00 82 1031.4
20180624173506 18 327 12.9 17.7 0.00 0.00 0.00 82 1031.4
20180624173006 18 324 12.9 16.1 0.00 0.00 0.00 82 1031.4
20180624172506 18 311 12.9 16.1 0.00 0.00 0.00 82 1031.4
20180624172006 18 303 12.9 16.1 0.00 0.00 0.00 81 1031.4
20180624171505 19 311 12.9 17.7 0.00 0.00 0.00 80 1031.4
20180624171006 19 312 14.5 17.7 0.00 0.00 0.00 80 1032.5
20180624170506 19 311 12.9 17.7 0.00 0.00 0.00 80 1032.5
20180624170006 19 305 12.9 17.7 0.00 0.00 0.00 80 1032.5
20180624165505 19 310 12.9 17.7 0.00 0.00 0.00 80 1032.5
20180624165006 19 314 11.3 16.1 0.00 0.00 0.00 80 1032.5
20180624164506 19 307 12.9 17.7 0.00 0.00 0.00 80 1032.5
20180624164006 20 307 12.9 17.7 0.00 0.00 0.00 79 1033.5
20180624163506 20 309 11.3 17.7 0.00 0.00 0.00 80 1033.5
20180624163007 20 308 11.3 16.1 0.00 0.00 0.00 80 1033.5
20180624162506 20 312 12.9 16.1 0.00 0.00 0.00 80 1034.5
20180624162006 20 309 12.9 17.7 0.00 0.00 0.00 80 1034.5
20180624161506 20 301 14.5 17.7 0.00 0.00 0.00 80 1034.5
20180624161006 20 309 14.5 20.9 0.00 0.00 0.00 79 1035.5
20180624160506 20 321 12.9 20.9 0.00 0.00 0.00 79 1035.5
20180624160010 20 322 11.3 20.9 0.00 0.00 0.00 79 1035.5
20180624155506 20 320 14.5 20.9 0.00 0.00 0.00 79 1035.5
20180624155006 20 316 12.9 20.9 0.00 0.00 0.00 78 1035.5
20180624154506 20 308 11.3 14.5 0.00 0.00 0.00 78 1035.5
20180624154006 20 311 11.3 17.7 0.00 0.00 0.00 78 1033.5
20180624153506 20 315 11.3 17.7 0.00 0.00 0.00 78 1033.5
20180624153006 20 310 11.3 14.5 0.00 0.00 0.00 77 1033.5
20180624152506 20 315 11.3 16.1 0.00 0.00 0.00 77 1032.5
20180624152006 20 317 14.5 20.9 0.00 0.00 0.00 77 1032.5
20180624151507 20 310 14.5 20.9 0.00 0.00 0.00 76 1032.5
20180624151006 21 311 12.9 17.7 0.00 0.00 0.00 76 1032.5
20180624150506 21 310 12.9 16.1 0.00 0.00 0.00 75 1032.5
20180624150006 21 318 12.9 17.7 0.00 0.00 0.00 76 1032.5
20180624145506 21 318 14.5 17.7 0.00 0.00 0.00 75 1032.5
20180624145007 21 309 11.3 17.7 0.00 0.00 0.00 75 1032.5
20180624144506 21 306 9.7 17.7 0.00 0.00 0.00 75 1032.5
20180624144006 22 283 9.7 17.7 0.00 0.00 0.00 75 1033.5
20180624143506 21 270 9.7 14.5 0.00 0.00 0.00 77 1033.5
20180624143007 21 308 11.3 14.5 0.00 0.00 0.00 76 1033.5
20180624142506 21 324 8.0 14.5 0.00 0.00 0.00 77 1032.5
20180624142006 21 306 8.0 11.3 0.00 0.00 0.00 77 1032.5
20180624141507 21 316 9.7 17.7 0.00 0.00 0.00 76 1032.5
20180624141006 21 317 9.7 17.7 0.00 0.00 0.00 76 1033.5
20180624140506 21 313 9.7 12.9 0.00 0.00 0.00 76 1033.5
20180624140006 21 307 11.3 16.1 0.00 0.00 0.00 77 1033.5
20180624135506 21 307 11.3 16.1 0.00 0.00 0.00 76 1033.5
20180624135006 21 313 9.7 11.3 0.00 0.00 0.00 77 1033.5
20180624134507 21 285 9.7 9.7 0.00 0.00 0.00 77 1033.5
20180624134006 21 273 8.0 11.3 0.00 0.00 0.00 77 1033.5
20180624133506 21 284 9.7 16.1 0.00 0.00 0.00 78 1033.5
20180624133006 21 293 11.3 16.1 0.00 0.00 0.00 78 1033.5
20180624132506 21 299 9.7 14.5 0.00 0.00 0.00 78 1034.5
20180624132007 20 311 9.7 16.1 0.00 0.00 0.00 79 1034.5
20180624131506 20 316 9.7 16.1 0.00 0.00 0.00 79 1034.5
20180624131006 20 304 9.7 12.9 0.00 0.00 0.00 79 1034.5
20180624130506 20 297 9.7 12.9 0.00 0.00 0.00 79 1034.5
20180624130006 20 316 12.9 17.7 0.00 0.00 0.00 78 1034.5
20180624125506 20 319 12.9 17.7 0.00 0.00 0.00 78 1034.5
20180624125006 21 304 11.3 17.7 0.00 0.00 0.00 77 1034.5
20180624124506 21 294 9.7 17.7 0.00 0.00 0.00 78 1034.5
20180624124006 21 307 11.3 17.7 0.00 0.00 0.00 77 1035.5
20180624123506 21 309 9.7 14.5 0.00 0.00 0.00 76 1035.5
20180624123006 22 291 9.7 12.9 0.00 0.00 0.00 77 1035.5
20180624122506 22 276 9.7 14.5 0.00 0.00 0.00 77 1035.5
20180624122009 22 275 8.0 14.5 0.00 0.00 0.00 76 1035.5
20180624121506 22 278 9.7 16.1 0.00 0.00 0.00 77 1035.5
20180624121006 22 273 11.3 16.1 0.00 0.00 0.00 78 1035.5
20180624120506 21 264 9.7 14.5 0.00 0.00 0.00 78 1035.5
20180624120006 21 272 9.7 14.5 0.00 0.00 0.00 79 1035.5
20180624115506 21 299 9.7 16.1 0.00 0.00 0.00 79 1035.5
20180624115006 21 298 9.7 16.1 0.00 0.00 0.00 79 1035.5
20180624114506 21 301 11.3 16.1 0.00 0.00 0.00 79 1035.5
20180624114006 21 302 8.0 16.1 0.00 0.00 0.00 79 1035.5
20180624113507 22 291 6.4 9.7 0.00 0.00 0.00 79 1035.5
20180624113007 22 284 6.4 11.3 0.00 0.00 0.00 80 1035.5
20180624112506 21 293 6.4 11.3 0.00 0.00 0.00 81 1035.5
20180624112006 21 294 6.4 12.9 0.00 0.00 0.00 81 1035.5
20180624111506 21 296 6.4 12.9 0.00 0.00 0.00 81 1035.5
20180624111006 21 298 6.4 11.3 0.00 0.00 0.00 82 1035.5
20180624110506 21 282 9.7 12.9 0.00 0.00 0.00 82 1035.5
20180624110006 21 263 9.7 14.5 0.00 0.00 0.00 82 1035.5
20180624105506 21 260 6.4 14.5 0.00 0.00 0.00 84 1035.5
20180624105006 21 265 4.8 8.0 0.00 0.00 0.00 85 1035.5
20180624104506 20 290 4.8 8.0 0.00 0.00 0.00 85 1035.5
20180624104007 20 317 6.4 8.0 0.00 0.00 0.00 85 1035.5
20180624103506 20 318 6.4 9.7 0.00 0.00 0.00 85 1035.5
20180624103006 20 317 6.4 9.7 0.00 0.00 0.00 85 1035.5
20180624102506 20 304 4.8 9.7 0.00 0.00 0.00 86 1035.5
20180624102007 20 289 4.8 6.4 0.00 0.00 0.00 86 1035.5
20180624101506 20 314 3.2 6.4 0.00 0.00 0.00 87 1035.5
20180624101007 20 265 1.6 3.2 0.00 0.00 0.00 89 1035.5
20180624100506 20 264 3.2 4.8 0.00 0.00 0.00 89 1035.5
20180624100006 19 279 3.2 4.8 0.00 0.00 0.00 89 1035.5
20180624095506 19 318 3.2 4.8 0.00 0.00 0.00 89 1035.5
20180624095006 19 287 3.2 4.8 0.00 0.00 0.00 90 1035.5
20180624094506 18 276 3.2 4.8 0.00 0.00 0.00 90 1035.5
20180624094006 18 301 3.2 4.8 0.00 0.00 0.00 90 1035.5
20180624093507 18 331 4.8 6.4 0.00 0.00 0.00 90 1035.5
20180624093007 18 337 4.8 6.4 0.00 0.00 0.00 90 1035.5
20180624092506 18 322 4.8 6.4 0.00 0.00 0.00 90 1035.5
20180624091007 18 319 3.2 6.4 0.00 0.00 0.00 91 1034.5
20180624090507 18 318 3.2 6.4 0.00 0.00 0.00 91 1034.5
20180624090007 18 289 3.2 4.8 0.00 0.00 0.00 91 1034.5
20180624085506 18 279 3.2 4.8 0.00 0.00 0.00 92 1034.5
20180624085007 18 283 3.2 6.4 0.00 0.00 0.00 92 1034.5
20180624084506 18 276 3.2 6.4 0.00 0.00 0.00 92 1034.5
20180624084006 18 284 4.8 6.4 0.00 0.00 0.00 92 1034.5
20180624083506 17 309 4.8 8.0 0.00 0.00 0.00 92 1034.5
20180624083007 17 317 4.8 8.0 0.00 0.00 0.00 92 1034.5
20180624082506 17 317 4.8 9.7 0.00 0.00 0.00 92 1034.5
20180624082007 17 313 6.4 9.7 0.00 0.00 0.00 92 1034.5
20180624081507 18 307 4.8 8.0 0.00 0.00 0.00 92 1034.5